OpenBCM V2.0.2 (Linux)

Packet Radio Mailbox

IZ3LSV

[San Dona' di P. JN]

 Login: GUEST





  
LU9DCE > KEPS     02.03.18 18:13l 260 Lines 12897 Bytes #999 (0) @ WW
BID : 33292_LU9DCE
Read: GUEST
Subj: SAT TLE OF 2
Path: IZ3LSV<IR2UBX<EA2RCF<LU9DCE
Sent: 180302/1601Z @:LU9DCE.TOR.BA.ARG.SOAM #:33292 [TORTUGUITAS] FBB7.07
From: LU9DCE@LU9DCE.TOR.BA.ARG.SOAM
To  : KEPS@WW


            __    _  _  ___  ____   ___  ____    ____  ____  ____
           (  )  / )( \/ _ \(    \ / __)(  __)  (  _ \(  _ \/ ___)
           / (_/\) \/ (\__  )) D (( (__  ) _)    ) _ ( ) _ (\___ \
           \____/\____/(___/(____/ \___)(____)  (____/(____/(____/
               ESTACION DE PACKET RADIO - BUENOS AIRES (GF05OM)
                   BOLETINES INFORMATIVOS PROGRAMADOS (BIP)
                    LU9DCE@GMX.COM - RF 147070 @ 1200 BAUD
                           telnet lu9dce.dynu.com
             BBS port 6300 / NODE port 3694 / DXCLUSTER port 9000

+------------------------------------------------------------------------------+
OSCAR 7
1 07530U 74089B   18061.48937889 -.00000043  00000-0  10171-4 0  9997
2 07530 101.6738  30.4694 0012013 180.3608 290.3879 12.53631324981222
OSCAR 11 (UoSAT 2)
1 14781U 84021B   18061.19147601  .00000050  00000-0  12342-4 0  9992
2 14781  97.6637 101.8897 0009972  77.0067 283.2260 14.82983743828582
OSCAR 19 (LUSAT)
1 20442U 90005G   18060.81584140 -.00000003  00000-0  14830-4 0  9996
2 20442  98.6013   0.0228 0012865 105.5966 254.6639 14.32887862468515
KITSAT B
1 22825U 93061C   18060.53940115 -.00000020  00000-0  99792-5 0  9995
2 22825  98.8503  34.7761 0007531 305.3926  54.6552 14.30022885274188
POSAT 1
1 22826U 93061D   18061.49050270 -.00000022  00000-0  94151-5 0  9992
2 22826  98.8446  35.7939 0007926 290.6529  69.3803 14.30353925274506
RADIO ROSTO
1 23439U 94085A   18060.75579448 -.00000047  00000-0 -13855-3 0  9999
2 23439  64.8167 162.5821 0160902 201.2610 257.9215 11.27566562954617
JAS 2
1 24278U 96046B   18060.56655397 -.00000015 +00000-0 +19496-4 0  9999
2 24278 098.5277 274.0871 0350865 030.2852 331.8064 13.53082078063437
TECHSAT 1B
1 25397U 98043D   18060.78105629 -.00000019  00000-0  10924-4 0  9994
2 25397  98.6400   3.0564 0001301  24.6629 335.4612 14.23640547 20447
ISS (ZARYA)
1 25544U 98067A   18060.57835756 +.00001767 +00000-0 +33881-4 0  9999
2 25544 051.6406 195.1666 0002959 141.4622 319.1766 15.54168370101783
PCSAT
1 26931U 01043C   18061.52267020 -.00000012  00000-0  27213-4 0  9992
2 26931  67.0514 144.6374 0006156 282.6320  77.4093 14.30495471857295
SAUDISAT 1C
1 27607U 02058C   18061.18770528 -.00000003  00000-0  20318-4 0  9993
2 27607  64.5551  57.0855 0052569 353.7240   6.3197 14.75423816817172
CUTE-1
1 27844U 03031E   18060.80318509  .00000054  00000-0  44301-4 0  9996
2 27844  98.6892  71.0320 0009106 327.9241  32.1382 14.22097095760939
CUBESAT XI 4
1 27848U 03031J   18060.80307973  .00000036  00000-0  36466-4 0  9996
2 27848  98.6981  71.3928 0009181 338.6853  21.3941 14.21703269760803
MOZHAYETS 4
1 27939U 03042A   18061.54632126  .00000052  00000-0  17878-4 0  9996
2 27939  97.9718 203.5453 0014163 124.0756 306.8531 14.66660989771180
CUBESAT XI 5
1 28895U 05043F   18060.39040304 +.00000124 +00000-0 +32508-4 0  9991
2 28895 097.8920 216.3106 0017831 053.4094 306.8746 14.63513563657877
CUTE-1.7+APD II
1 32785U 08021C   18060.79776122  .00000188  00000-0  26077-4 0  9995
2 32785  97.5525  78.0764 0014024  40.0551 320.1697 14.88068631533204
DELFI C3
1 32789U 08021G   18061.13443839  .00000583  00000-0  44402-4 0  9995
2 32789  97.5261 118.6002 0011028 307.1792  52.8427 15.05782780535677
SEEDS
1 32791U 08021J   18060.52368280 +.00000316 +00000-0 +37770-4 0  9990
2 32791 097.5441 082.9188 0013918 023.5743 336.6110 14.90477401533396
YUBELEINY
1 32953U 08025A   18061.47799738  .00000026  00000-0  11512-3 0  9998
2 32953  82.4989  79.0432 0020372  83.4211 276.9187 12.43082066443511
PRISM (HITOMI)
1 33493U 09002B   18061.36284344 -.00000092  00000-0 -24875-5 0  9997
2 33493  98.1416 319.2985 0014825 315.3641  44.6362 14.96089684494370
KKS-1 (KISEKI)
1 33499U 09002H   18061.49389981  .00000104  00000-0  23504-4 0  9999
2 33499  98.3502 239.8179 0007969 272.5197  87.5099 14.75298808489449
SWISSCUBE
1 35932U 09051B   18060.96678888  .00000103  00000-0  34262-4 0  9997
2 35932  98.5277 209.6505 0007965 171.2481 188.8856 14.56125415447834
BEESAT
1 35933U 09051C   18060.38338482 +.00000088 +00000-0 +30744-4 0  9990
2 35933 098.5316 210.5319 0005845 183.3120 176.8040 14.56233034447853
ITUPSAT 1
1 35935U 09051E   18060.37738366 +.00000070 +00000-0 +27095-4 0  9992
2 35935 098.5429 210.7801 0008229 181.2769 178.8407 14.55414132447615
XIWANG-1 (HOPE-1)
1 36122U 09072B   18060.54143081 -.00000011 +00000-0 +82744-4 0  9995
2 36122 100.0829 080.1823 0007518 006.5676 353.5535 13.16343596394386
TISAT 1
1 36799U 10035E   18060.92404367  .00000432  00000-0  50104-4 0  9996
2 36799  98.0887 194.4153 0012162 194.8005 165.2858 14.90706723414173
JUGNU
1 37839U 11058B   18060.14320911  .00000331  00000-0  34677-4 0  9999
2 37839  19.9623 332.4077 0019046 135.8511  10.3700 14.12610695330071
SRMSAT
1 37841U 11058D   18061.20696800  .00000309  00000-0  24593-4 0  9994
2 37841  19.9736  12.9513 0011915  36.2809  94.7730 14.10599443329752
M-CUBED/EXP-1 PRIME
1 37855U 11061F   18060.65582476  .00001519  00000-0  85492-4 0  9993
2 37855 101.7257  68.1557 0177657  40.4385 320.9876 15.04101902345484
HORYU 2
1 38340U 12025D   18060.99808977  .00000182  00000-0  34797-4 0  9995
2 38340  98.3736  78.9998 0011469 185.9532 174.1542 14.75505369311307
STRAND 1
1 39090U 13009E   18060.80240043  .00000030  00000-0  25757-4 0  9993
2 39090  98.5318 268.5158 0008113 254.7701 105.2587 14.35012710262429
SOMP
1 39134U 13015E   18060.62334086  .00001099  00000-0  61871-4 0  9993
2 39134  64.8627 114.7781 0022818 225.3300 134.5968 15.18847893268567
BEESAT 3
1 39135U 13015F   18060.47080662 +.00000663 +00000-0 +43847-4 0  9994
2 39135 064.8689 127.2488 0028745 247.1709 112.6380 15.16423778267923
BEESAT 2
1 39136U 13015G   18060.79889933  .00000791  00000-0  51013-4 0  9994
2 39136  64.8698 128.6910 0029373 247.1870 112.6152 15.15905942268314
CUBEBUG 1
1 39153U 13018D   18060.70294983  .00000178  00000-0  30353-4 0  9995
2 39153  97.9779 156.5976 0015689 296.3001  63.6599 14.80346352261687
ZACUBE
1 39417U 13066B   18060.67981834  .00000203  00000-0  31966-4 0  9995
2 39417  97.5997  94.9925 0060090 146.1687 214.3383 14.80881987230887
TRITON 1
1 39427U 13066M   18061.46572289  .00000115  00000-0  26560-4 0  9990
2 39427  97.6386  64.4882 0112867 240.9573 118.0289 14.67616561228928
GOMX 1
1 39430U 13066Q   18061.18368853  .00000184  00000-0  42812-4 0  9997
2 39430  97.6874  45.8311 0150541 308.7292  50.0531 14.59031545227542
HUMSAT D
1 39433U 13066T   18061.12410471  .00000410  00000-0  45787-4 0  9994
2 39433  97.6183 121.1779 0032476  79.9936 280.4946 14.91760730232469
50 SAT
1 39436U 13066W   18061.28941834  .00082463  00000-0  95575-3 0  9993
2 39436  97.7124 188.9467 0006156 233.8261 126.2427 15.61521855236557
CUBEBUG 2
1 39440U 13066AA  18061.07140416  .00000169  00000-0  30561-4 0  9990
2 39440  97.6085  82.6355 0080588 182.3561 177.7281 14.75618223230121
FUNCUBE 1
1 39444U 13066AE  18061.06943044  .00000241  00000-0  36109-4 0  9996
2 39444  97.6009  96.7507 0059361 140.7813 219.7725 14.81648165229795
UWE-3
1 39446U 13066AG  18061.07455447  .00000184  00000-0  31209-4 0  9996
2 39446  97.6028  88.6395 0070789 163.9372 196.4107 14.78151350229298
SPROUT
1 39770U 14029E   18061.51819541  .00000768  00000-0  92494-4 0  9995
2 39770  97.8727 163.5027 0008795 190.1764 169.9287 14.86689133204512
UNISAT 6
1 40012U 14033C   18060.73942307  .00000159  00000-0  31282-4 0  9993
2 40012  97.8246 300.8930 0058292 184.0397 176.0349 14.73769591198871
DUCHIFAT 1
1 40021U 14033M   18060.96473603  .00000356  00000-0  42585-4 0  9993
2 40021  97.9177 339.4915 0013135 165.6495 194.5098 14.90209893200982
QB50P1
1 40025U 14033R   18060.60395079 +.00000213 +00000-0 +28861-4 0  9991
2 40025 097.9086 336.2104 0012545 172.5044 187.6362 14.88644293200274
CHUBUSAT 1
1 40300U 14070C   18061.14765899  .00000652  00000-0  32048-4 0  9998
2 40300  97.3722 141.1013 0018690 279.9784 138.3377 15.21404537184007
NUDT-PHONESAT
1 40900U 15049B   18060.55065828 +.00001872 +00000-0 +87776-4 0  9993
2 40900 097.4428 070.0699 0014921 051.1378 309.1187 15.20839341135556
ZDPS 2A
1 40901U 15049C   18061.48326342  .00000774  00000-0  42622-4 0  9999
2 40901  97.4600  69.5061 0015138  53.0993 307.1625 15.16879772135484
ZDPS 2B
1 40902U 15049D   18061.17885499  .00000727  00000-0  40435-4 0  9997
2 40902  97.4490  67.4080 0015142  51.4181 308.8406 15.16684809135420
XW-2A
1 40903U 15049E   18061.50394388  .00001661  00000-0  43560-4 0  9997
2 40903  97.3972  95.2499 0015857  59.1128 301.1675 15.40056752137385
KAITUO 1A
1 40904U 15049F   18061.48443465  .00000797  00000-0  46220-4 0  9991
2 40904  97.4586  67.0723 0016311  51.0822 100.8121 15.14901186135348
OBJECT G
1 40905U 15049G   18061.47155724  .00000361  00000-0  23519-4 0  9992
2 40905  97.4577  65.3143 0016998  44.4946 315.7647 15.13870337135274
XW-2C
1 40906U 15049H   18061.46022301  .00000591  00000-0  35050-4 0  9994
2 40906  97.4598  66.9215 0016250  44.5959 315.6577 15.15035236135332
XW-2D
1 40907U 15049J   18061.48895740  .00000616  00000-0  36244-4 0  9996
2 40907  97.4570  66.6605 0015578  42.7500 317.4941 15.15174854135343
LILACSAT 2
1 40908U 15049K   18060.57562471 +.00000309 +00000-0 +20910-4 0  9990
2 40908 097.4679 065.2591 0017252 045.8747 314.3900 15.13417799135090
XW-2F
1 40910U 15049M   18061.18893073  .00000936  00000-0  51624-4 0  9998
2 40910  97.4577  67.4888 0016241  40.1170 320.1258 15.16290017135241
XW-2B
1 40911U 15049N   18061.17244342  .00000587  00000-0  34758-4 0  9998
2 40911  97.4607  66.8459 0015502  44.3051 315.9419 15.15122612135195
